period_start,C,m1,H,J0,J1,J2,J3,J4,J5,JA,JB,JC,JD,JJ,JK,JN,#
2017-12-03 00:01:39,0.02,1.48,0.00,18.02,21.87,24.94,14.41,47.17,1023.94,2048.97,2863.76,2779.19,3087.07,600.12,610.76,50.50,0000 0000 0000 0000 000000
2017-12-03 00:06:40,0.01,1.48,0.00,18.01,21.87,24.95,14.32,47.20,1023.94,2048.97,2863.07,2779.04,3087.00,599.93,610.58,50.55,0000 0000 0000 0000 000000
2017-12-03 00:11:42,0.00,1.48,0.00,17.99,21.87,24.96,14.34,47.17,1023.94,2048.98,2863.00,2779.02,3087.00,599.89,610.52,50.60,0000 0000 0000 0000 000000
2017-12-03 00:16:43,0.01,1.48,0.00,17.98,21.87,24.93,14.28,47.36,1023.96,2048.98,2862.81,2779.01,3086.96,599.74,610.31,50.65,0000 0000 0000 0000 000000
2017-12-03 00:21:44,0.01,1.48,0.00,17.97,21.87,24.94,14.25,47.38,1023.99,2048.96,2862.36,2779.02,3086.58,599.93,610.71,50.70,0000 0000 0000 0000 000000
2017-12-03 00:26:45,0.01,1.48,0.00,17.98,21.87,24.93,14.30,47.38,1023.97,2048.97,2862.04,2779.02,3086.12,599.98,610.54,50.75,0000 0000 0000 0000 000000
2017-12-03 00:31:47,0.00,1.48,0.00,17.99,21.87,24.93,14.26,47.41,1024.06,2048.95,2861.87,2779.00,3086.01,599.74,610.62,50.80,0000 0000 0000 0000 000000
2017-12-03 00:36:48,0.01,1.48,0.00,17.99,21.87,24.93,14.34,47.34,1024.26,2048.97,2861.19,2779.00,3086.00,600.13,610.93,50.85,0000 0000 0000 0000 000000
2017-12-03 00:41:49,0.00,1.48,0.00,18.00,21.86,24.96,14.31,47.19,1024.29,2048.96,2860.99,2779.00,3085.98,599.81,610.65,50.90,0000 0000 0000 0000 000000
2017-12-03 00:46:50,0.01,1.48,0.00,18.00,21.85,24.96,14.22,47.22,1024.28,2048.95,2860.61,2779.00,3085.92,599.57,610.39,50.95,0000 0000 0000 0000 000000
2017-12-03 00:51:52,0.01,1.48,0.00,18.00,21.85,24.94,14.19,47.16,1024.36,2048.93,2860.04,2778.98,3085.35,599.99,610.84,51.00,0000 0000 0000 0000 000000
2017-12-03 00:56:53,-0.00,1.48,0.00,17.97,21.84,24.92,14.25,47.11,1024.41,2048.87,2859.93,2778.97,3085.02,599.89,610.67,51.06,0000 0000 0000 0000 000000
2017-12-03 01:01:54,0.03,1.49,0.00,17.96,21.84,24.92,14.30,47.28,1024.42,2048.93,2859.10,2778.92,3085.01,599.97,610.76,51.11,0000 0000 0000 0000 000000
2017-12-03 01:06:55,0.02,1.49,0.00,17.96,21.84,24.92,14.30,47.38,1024.40,2048.90,2858.81,2778.33,3085.00,599.97,611.06,51.16,0000 0000 0000 0000 000000
2017-12-03 01:11:57,0.01,1.49,0.00,17.95,21.84,24.94,14.24,47.27,1024.42,2048.94,2858.10,2778.13,3084.97,599.76,610.76,51.21,0000 0000 0000 0000 000000
2017-12-03 01:16:58,-0.00,1.49,0.00,17.95,21.82,24.93,14.32,47.23,1024.43,2048.91,2858.04,2778.13,3084.78,600.23,611.15,51.26,0000 0000 0000 0000 000000
2017-12-03 01:21:59,0.01,1.49,0.00,17.93,21.82,24.91,14.23,47.11,1024.43,2048.86,2857.99,2778.06,3084.18,599.72,610.80,51.31,0000 0000 0000 0000 000000
2017-12-03 01:27:01,0.00,1.49,0.00,17.92,21.82,24.93,14.31,47.24,1024.43,2048.80,2857.38,2778.03,3084.03,600.02,611.14,51.36,0000 0000 0000 0000 000000
2017-12-03 01:32:02,0.00,1.49,0.00,17.94,21.82,24.91,14.28,47.32,1024.43,2048.76,2857.01,2778.00,3084.00,599.78,610.83,51.41,0000 0000 0000 0000 000000
2017-12-03 01:37:03,0.02,1.49,0.00,17.92,21.81,24.93,14.27,47.21,1024.43,2048.89,2856.72,2778.00,3084.00,599.78,610.87,51.46,0000 0000 0000 0000 000000
2017-12-03 01:42:04,0.00,1.49,0.00,17.95,21.80,24.94,14.29,47.16,1024.44,2048.87,2856.03,2778.00,3083.98,599.84,610.88,51.51,0000 0000 0000 0000 000000
2017-12-03 01:47:06,0.01,1.49,0.00,17.93,21.79,24.91,14.38,47.36,1024.48,2048.92,2855.96,2778.00,3083.89,600.16,611.31,51.56,0000 0000 0000 0000 000000
2017-12-03 01:52:07,0.02,1.49,0.00,17.89,21.79,24.97,14.36,47.34,1024.65,2048.96,2855.33,2777.99,3083.65,600.07,611.41,51.61,0000 0000 0000 0000 000000
2017-12-03 01:57:08,0.01,1.49,0.00,17.89,21.79,24.95,14.30,47.28,1024.67,2048.98,2855.02,2777.98,3083.12,599.88,611.13,51.66,0000 0000 0000 0000 000000
2017-12-03 02:02:10,0.00,1.49,0.00,17.88,21.79,24.93,14.29,47.17,1024.72,2048.94,2854.96,2777.97,3083.01,599.97,611.38,51.71,0000 0000 0000 0000 000000
2017-12-03 02:07:11,0.00,1.49,0.00,17.86,21.79,24.91,14.44,47.23,1024.74,2048.91,2854.44,2777.96,3083.00,600.39,611.75,51.76,0000 0000 0000 0000 000000
2017-12-03 02:12:12,0.00,1.49,0.00,17.86,21.77,24.88,14.32,47.23,1024.64,2048.89,2854.02,2777.94,3082.95,600.02,611.28,51.81,0000 0000 0000 0000 000000
2017-12-03 02:17:14,0.02,1.49,0.00,17.85,21.77,24.88,14.35,47.22,1024.62,2048.93,2853.71,2777.87,3082.86,600.16,611.47,51.87,0000 0000 0000 0000 000000
2017-12-03 02:22:15,0.02,1.50,0.00,17.84,21.77,24.90,14.37,47.14,1024.71,2048.96,2853.39,2777.86,3082.28,600.07,611.49,51.92,0000 0000 0000 0000 000000
2017-12-03 02:27:16,0.01,1.50,0.00,17.84,21.77,24.89,14.34,47.09,1024.79,2048.97,2853.03,2777.88,3082.05,600.00,611.47,51.97,0000 0000 0000 0000 000000
2017-12-03 02:32:17,0.01,1.50,0.00,17.83,21.76,24.87,14.27,47.17,1024.91,2048.94,2852.97,2777.73,3082.00,599.74,611.45,52.02,0000 0000 0000 0000 000000
2017-12-03 02:37:19,0.02,1.50,0.00,17.82,21.74,24.89,14.41,47.22,1024.92,2048.94,2852.31,2777.42,3082.00,600.04,611.72,52.07,0000 0000 0000 0000 000000
2017-12-03 02:42:20,0.01,1.50,0.00,17.85,21.74,24.84,14.28,47.16,1024.92,2048.96,2852.00,2777.14,3082.00,599.90,611.47,52.12,0000 0000 0000 0000 000000
2017-12-03 02:47:21,0.00,1.50,0.00,17.84,21.73,24.85,14.36,47.27,1024.92,2048.94,2851.89,2777.07,3081.96,599.97,611.58,52.17,0000 0000 0000 0000 000000
2017-12-03 02:52:22,0.02,1.50,0.00,17.82,21.72,24.88,14.38,47.22,1024.92,2048.94,2851.23,2777.02,3081.44,600.06,611.73,52.22,0000 0000 0000 0000 000000
2017-12-03 02:57:24,0.01,1.50,0.00,17.80,21.72,24.88,14.39,47.31,1024.92,2048.90,2850.99,2777.01,3081.17,600.44,612.13,52.27,0000 0000 0000 0000 000000
2017-12-03 03:02:25,0.01,1.50,0.00,17.80,21.71,24.83,14.27,47.27,1024.92,2048.98,2850.84,2777.01,3081.06,599.72,611.41,52.32,0000 0000 0000 0000 000000
2017-12-03 03:07:27,0.01,1.50,0.00,17.78,21.69,24.85,14.43,47.27,1024.92,2048.97,2850.08,2777.01,3081.00,600.24,611.99,52.37,0000 0000 0000 0000 000000
2017-12-03 03:12:28,-0.00,1.50,0.00,17.77,21.69,24.83,14.32,47.17,1024.92,2048.98,2850.00,2777.00,3081.00,600.05,611.80,52.42,0000 0000 0000 0000 000000
2017-12-03 03:17:29,0.00,1.50,0.00,17.76,21.67,24.83,14.32,47.28,1024.92,2048.98,2849.82,2777.01,3081.00,599.94,611.69,52.47,0000 0000 0000 0000 000000
2017-12-03 03:22:31,0.01,1.50,0.00,17.78,21.67,24.85,14.44,47.40,1024.92,2048.99,2849.09,2777.00,3081.00,600.32,611.92,52.52,0000 0000 0000 0000 000000
2017-12-03 03:27:32,0.00,1.50,0.00,17.78,21.65,24.80,14.38,47.26,1024.93,2048.99,2848.99,2777.00,3080.99,599.82,611.59,52.57,0000 0000 0000 0000 000000
2017-12-03 03:32:33,0.01,1.50,0.00,17.75,21.64,24.82,14.42,47.27,1024.93,2048.99,2848.50,2777.00,3080.98,600.34,612.03,52.62,0000 0000 0000 0000 000000
2017-12-03 03:37:35,0.00,1.50,0.00,17.73,21.63,24.78,14.36,47.45,1024.93,2048.99,2848.01,2777.00,3080.74,600.15,611.94,52.67,0000 0000 0000 0000 000000
2017-12-03 03:42:37,0.01,1.50,0.00,17.71,21.62,24.81,14.40,47.49,1024.94,2048.99,2847.89,2777.00,3080.17,600.24,612.15,52.72,0000 0000 0000 0000 000000
2017-12-03 03:47:38,0.01,1.50,0.00,17.68,21.61,24.83,14.29,47.56,1025.04,2048.99,2847.20,2777.00,3080.04,600.05,611.98,52.77,0000 0000 0000 0000 000000
2017-12-03 03:52:39,0.00,1.51,0.00,17.67,21.59,24.77,14.39,47.36,1025.23,2049.00,2847.00,2776.99,3080.00,600.14,612.24,52.83,0000 0000 0000 0000 000000
2017-12-03 03:57:41,0.00,1.51,0.00,17.65,21.58,24.82,14.44,47.35,1025.37,2049.00,2846.90,2776.99,3080.00,599.97,612.11,52.88,0000 0000 0000 0000 000000
2017-12-03 04:02:42,0.01,1.51,0.00,17.63,21.57,24.81,14.35,47.27,1025.39,2049.00,2846.10,2776.98,3080.00,599.69,611.91,52.93,0000 0000 0000 0000 000000
2017-12-03 04:07:43,0.00,1.51,0.00,17.61,21.56,24.77,14.32,47.35,1025.40,2049.01,2845.99,2776.98,3079.98,599.89,612.16,52.98,0000 0000 0000 0000 000000
2017-12-03 04:12:44,0.01,1.51,0.00,17.61,21.54,24.77,14.36,47.33,1025.40,2049.01,2845.45,2776.97,3079.89,600.18,612.52,53.03,0000 0000 0000 0000 000000
2017-12-03 04:17:46,0.02,1.51,0.00,17.58,21.54,24.77,14.26,47.40,1025.40,2049.03,2845.01,2776.90,3079.43,599.97,612.27,53.08,0000 0000 0000 0000 000000
2017-12-03 04:22:47,0.00,1.51,0.00,17.59,21.52,24.77,14.37,47.37,1025.41,2049.07,2844.97,2776.94,3079.15,599.84,612.18,53.13,0000 0000 0000 0000 000000
2017-12-03 04:27:48,0.02,1.51,0.00,17.57,21.52,24.73,14.28,47.42,1025.41,2049.11,2844.34,2776.88,3079.04,599.60,612.15,53.18,0000 0000 0000 0000 000000
2017-12-03 04:32:49,0.01,1.51,0.00,17.57,21.50,24.75,14.41,47.39,1025.41,2049.19,2844.00,2776.81,3079.00,600.14,612.70,53.23,0000 0000 0000 0000 000000
2017-12-03 04:37:50,0.01,1.51,0.00,17.55,21.49,24.70,14.39,47.39,1025.41,2049.24,2843.95,2776.63,3079.00,600.03,612.39,53.28,0000 0000 0000 0000 000000
2017-12-03 04:42:52,0.03,1.51,0.00,17.53,21.48,24.67,14.37,47.27,1025.41,2049.25,2843.35,2776.31,3078.99,599.99,612.52,53.33,0000 0000 0000 0000 000000
2017-12-03 04:47:53,0.02,1.51,0.00,17.51,21.47,24.69,14.31,47.38,1025.41,2049.49,2843.03,2776.44,3078.97,599.86,612.46,53.38,0000 0000 0000 0000 000000
2017-12-03 04:52:55,0.02,1.51,0.00,17.49,21.46,24.65,14.39,47.48,1025.45,2049.63,2842.95,2776.30,3078.79,600.14,612.75,53.43,0000 0000 0000 0000 000000
2017-12-03 04:57:56,0.04,1.52,0.00,17.48,21.44,24.66,14.40,47.40,1025.70,2049.82,2842.21,2776.16,3078.60,600.07,612.90,53.48,0000 0000 0000 0000 000000
2017-12-03 05:02:57,0.01,1.52,0.00,17.46,21.43,24.67,14.35,47.37,1025.86,2049.95,2842.00,2776.10,3078.28,600.07,612.96,53.53,0000 0000 0000 0000 000000
2017-12-03 05:07:59,0.00,1.52,0.00,17.44,21.42,24.65,14.44,47.30,1025.89,2049.97,2841.95,2776.15,3078.08,600.32,613.43,53.58,0000 0000 0000 0000 000000
2017-12-03 05:13:00,0.02,1.52,0.00,17.43,21.41,24.66,14.37,47.38,1025.89,2049.97,2841.18,2776.06,3078.01,599.93,612.93,53.63,0000 0000 0000 0000 000000
2017-12-03 05:18:01,0.00,1.52,0.00,17.42,21.39,24.60,14.26,47.33,1025.89,2049.98,2841.00,2776.05,3078.00,599.81,612.86,53.68,0000 0000 0000 0000 000000
2017-12-03 05:23:02,0.01,1.52,0.00,17.40,21.38,24.61,14.43,47.38,1025.90,2049.99,2840.64,2776.04,3078.00,600.15,613.21,53.74,0000 0000 0000 0000 000000
2017-12-03 05:28:04,0.00,1.52,0.00,17.41,21.37,24.56,14.40,47.43,1025.91,2049.99,2840.04,2776.02,3077.98,600.07,613.22,53.79,0000 0000 0000 0000 000000
2017-12-03 05:33:05,0.00,1.52,0.00,17.37,21.36,24.55,14.38,47.42,1025.92,2049.99,2839.99,2776.01,3077.96,599.86,613.04,53.84,0000 0000 0000 0000 000000
2017-12-03 05:38:06,0.01,1.52,0.00,17.35,21.34,24.55,14.43,47.30,1025.91,2049.99,2839.50,2776.01,3077.85,599.92,613.12,53.89,0000 0000 0000 0000 000000
2017-12-03 05:43:08,0.01,1.52,0.00,17.34,21.33,24.54,14.47,47.38,1026.03,2049.99,2839.02,2776.01,3077.41,600.41,613.60,53.94,0000 0000 0000 0000 000000
2017-12-03 05:48:09,0.00,1.52,0.00,17.33,21.32,24.50,14.30,47.36,1026.28,2050.01,2838.98,2776.00,3077.06,599.86,613.41,53.99,0000 0000 0000 0000 000000
2017-12-03 05:53:10,0.01,1.52,0.00,17.32,21.30,24.55,14.42,47.48,1026.37,2050.01,2838.29,2776.00,3077.02,600.18,613.72,54.04,0000 0000 0000 0000 000000
2017-12-03 05:58:11,0.00,1.52,0.00,17.30,21.29,24.50,14.41,47.59,1026.26,2050.01,2838.00,2776.00,3077.00,600.00,613.54,54.09,0000 0000 0000 0000 000000
2017-12-03 06:03:13,0.00,1.52,0.00,17.28,21.27,24.47,14.47,47.55,1026.20,2050.04,2837.87,2776.00,3077.00,600.29,613.81,54.14,0000 0000 0000 0000 000000
2017-12-03 06:08:14,0.01,1.52,0.00,17.28,21.26,24.44,14.37,47.48,1026.17,2050.03,2837.53,2776.00,3076.95,599.83,613.31,54.19,0000 0000 0000 0000 000000
2017-12-03 06:13:15,0.00,1.52,0.00,17.27,21.24,24.42,14.39,47.58,1026.33,2050.02,2837.02,2776.00,3076.86,599.91,613.60,54.24,0000 0000 0000 0000 000000
2017-12-03 06:18:16,0.02,1.53,0.00,17.26,21.23,24.43,14.41,47.69,1026.38,2050.06,2836.89,2775.99,3076.32,599.84,613.56,54.29,0000 0000 0000 0000 000000
2017-12-03 06:23:17,0.01,1.53,0.00,17.25,21.22,24.38,14.40,47.63,1026.38,2050.07,2836.24,2775.98,3076.03,599.99,613.60,54.34,0000 0000 0000 0000 000000
2017-12-03 06:28:18,0.00,1.53,0.00,17.24,21.20,24.41,14.39,47.57,1026.33,2050.11,2836.00,2775.98,3076.00,599.78,613.56,54.39,0000 0000 0000 0000 000000
2017-12-03 06:33:20,0.01,1.53,0.00,17.22,21.19,24.39,14.44,47.67,1026.09,2050.18,2835.71,2775.97,3076.00,600.07,613.63,54.44,0000 0000 0000 0000 000000
2017-12-03 06:38:21,0.05,1.53,0.00,17.19,21.17,24.40,14.40,47.77,1025.92,2050.52,2835.04,2775.96,3076.00,600.14,613.65,54.49,0000 0000 0000 0000 000000
